EW8868 Weather Reports


time (UTC)temp
F
wind
direction
speed
knots
gust
knots
rain 1hr
in
rain 24hr
in
rain mn
in
humidity
%
barometer
mb
20260505011543 64 172 0.0 0.0 0.00 0.00 0.09 62 1012.8
20260505004534 68 172 0.0 0.0 0.00 0.00 0.08 62 1012.6
20260505003031 69 172 0.0 0.0 0.00 0.00 0.08 61 1012.4
20260505001525 71 172 0.0 0.0 0.00 0.00 0.08 56 1012.3
20260505000021 72 172 0.0 0.0 0.00 0.00 0.08 54 1012.3
20260504234516 73 172 0.0 0.0 0.00 0.00 0.08 49 1012.4
20260504233012 73 172 0.0 0.0 0.00 0.00 0.08 49 1012.6
20260504231507 74 172 0.0 0.0 0.00 0.00 0.08 48 1012.6
20260504230005 74 172 0.0 0.0 0.00 0.00 0.08 47 1012.7
20260504224626 74 172 0.0 0.0 0.00 0.00 0.07 45 1012.8
20260504223055 75 172 0.0 0.0 0.00 0.00 0.07 48 1012.8
20260504221550 75 171 0.0 0.0 0.00 0.00 0.07 47 1012.9
20260504220053 74 171 0.0 0.0 0.00 0.00 0.07 49 1013.0
20260504214545 75 171 0.0 0.0 0.00 0.00 0.07 48 1013.2
20260504213039 75 171 0.0 0.0 0.00 0.00 0.07 46 1013.1
20260504211534 75 216 0.0 0.0 0.00 0.00 0.07 47 1013.2
20260504210029 74 171 0.0 0.0 0.00 0.00 0.07 50 1013.3
20260504204523 74 173 0.0 0.0 0.00 0.00 0.07 47 1013.3
20260504203020 75 205 0.9 0.0 0.00 0.00 0.07 46 1013.4
20260504201516 75 167 0.0 0.0 0.00 0.00 0.06 46 1013.6
20260504200016 75 167 0.0 0.0 0.00 0.00 0.06 47 1013.9
20260504194509 74 167 0.0 0.0 0.00 0.00 0.06 50 1014.1
20260504193002 74 167 0.0 0.0 0.00 0.00 0.06 48 1014.2
20260504191614 74 165 0.0 0.0 0.00 0.00 0.06 49 1014.4
20260504190055 74 165 0.0 0.0 0.00 0.00 0.05 49 1014.6
20260504184550 73 165 0.0 0.0 0.00 0.00 0.05 48 1014.9
20260504183045 73 300 0.0 0.0 0.00 0.00 0.05 52 1015.2
20260504181541 73 170 0.0 0.0 0.00 0.00 0.05 50 1015.3
20260504180037 74 170 0.0 0.0 0.00 0.00 0.05 53 1015.5
20260504174532 73 170 0.0 0.0 0.00 0.00 0.04 51 1015.5
20260504173027 73 190 0.0 0.0 0.00 0.00 0.04 55 1015.8
20260504171523 72 190 0.0 0.0 0.00 0.00 0.04 53 1016.2
20260504120119 43 293 0.0 0.0 0.00 0.00 0.02 100 1017.6
20260504081548 43 293 0.0 0.0 0.00 0.00 0.01 100 1017.0
20260504044547 46 293 0.0 0.0 0.00 0.00 0.07 100 1018.1
20260504043102 47 293 0.0 0.0 0.00 0.00 0.07 100 1018.3
20260504041537 47 293 0.0 0.0 0.00 0.00 0.07 100 1018.3
20260504040033 48 293 0.0 0.0 0.00 0.00 0.07 100 1018.4
20260504034528 49 293 0.0 0.0 0.00 0.00 0.07 100 1018.6
20260504033023 49 293 0.0 0.0 0.00 0.00 0.07 100 1018.6
20260504031520 50 293 0.0 0.0 0.00 0.00 0.07 100 1018.6
20260504030017 50 293 0.0 0.0 0.00 0.00 0.07 1 1018.4
20260504024511 51 293 0.0 0.0 0.00 0.00 0.07 10 1018.4
20260504023008 52 293 0.0 0.0 0.00 0.00 0.07 23 1018.2
20260504021506 53 293 0.0 0.0 0.00 0.00 0.07 30 1018.1
20260504020106 54 293 0.0 0.0 0.00 0.00 0.06 40 1017.9
20260504014604 55 293 0.0 0.0 0.00 0.00 0.06 48 1017.8
20260504013053 56 293 0.0 0.0 0.00 0.00 0.06 54 1017.6